Temperature
8 8 8 9 9 9 9 9 9 9 9 10 10 10 10 10 10 10 10 10 10 10 10 10 10 10 10 10 10 10 10 10 10 11 11 11 11 11 11 11 11 11 11
7 7 7 8 8 8 9 9 9 9 9 9 9 9 9 9 9 9 9 9 9 9 9 9 9 10 10 10 10 10 10 10 10 10 10 10 10 10 11 11 11 11 11
6 7 7 7 7 7 8 8 8 8 8 8 9 9 9 9 8 9 9 9 9 9 9 9 9 9 9 9 9 9 9 9 10 10 10 10 10 10 10 10 10 10 10
6 6 6 6 6 7 7 7 7 8 8 8 8 8 8 8 8 8 8 8 8 8 8 8 9 9 9 9 9 9 9 9 9 9 9 9 9 10 10 10 10 10 10
5 5 5 5 6 6 6 6 6 7 7 7 7 7 7 7 7 7 7 7 7 8 8 8 8 8 8 8 8 8 8 8 8 9 9 9 9 9 9 9 9 10 10
4 5 5 5 5 5 5 6 6 6 6 6 7 7 7 7 6 6 6 7 7 7 7 7 7 7 8 8 8 8 8 8 8 8 8 8 8 9 9 9 9 9 9
4 4 4 4 4 4 5 5 5 5 5 5 6 5 6 6 6 6 6 6 6 6 6 6 6 7 7 7 7 7 7 7 8 8 8 8 8 8 8 8 9 9 9
3 3 3 3 3 4 4 4 4 4 4 4 4 4 4 4 5 5 5 5 5 5 5 6 6 6 6 6 6 7 7 7 7 7 7 7 7 8 8 8 8 8 8
2 2 3 2 3 3 3 3 3 3 3 3 3 3 3 3 3 4 4 5 5 5 5 5 5 5 6 6 6 6 6 6 6 6 6 7 7 7 7 7 8 8 8
2 2 2 2 2 2 2 2 2 2 2 2 2 2 2 2 2 2 3 3 3 4 4 4 5 5 5 5 5 5 6 6 6 6 6 6 6 6 6 7 7 7 8
1 1 1 1 1 1 1 1 1 1 1 1 1 1 1 1 2 1 1 2 2 3 3 3 4 4 4 4 5 5 5 5 5 5 5 5 6 6 6 6 6 7 7
-0 0 0 0 0 0 0 0 0 0 0 0 0 0 0 0 1 1 1 1 1 2 2 2 3 3 3 3 4 4 4 4 5 5 5 5 5 5 5 6 6 6 6
-1 -1 -1 -1 -1 -1 -1 -0 -0 -0 -0 -0 -0 -0 -0 -0 -0 -0 -0 -0 -0 1 1 1 1 2 2 2 3 3 4 4 4 4 4 4 4 5 5 5 5 5 6
-2 -1 -1 -1 -1 -1 -1 -1 -1 -1 -1 -1 -1 -1 -1 -1 -1 -1 -1 -1 -1 -1 -0 0 0 1 1 1 1 2 2 3 3 3 3 4 4 4 4 4 4 5 5
-2 -2 -2 -2 -2 -2 -2 -2 -2 -2 -2 -2 -2 -2 -2 -2 -2 -2 -2 -2 -2 -2 -1 -1 -1 -0 0 0 1 1 1 2 2 3 3 3 3 3 4 4 4 4 4
-3 -3 -3 -3 -3 -3 -3 -3 -3 -3 -3 -3 -3 -3 -3 -3 -3 -3 -3 -3 -3 -3 -3 -2 -1 -1 -1 -0 -0 0 0 1 1 2 2 2 2 3 3 3 3 3 3
-4 -3 -3 -3 -3 -3 -3 -3 -3 -4 -4 -4 -4 -4 -4 -4 -4 -4 -3 -3 -3 -3 -3 -3 -2 -2 -2 -1 -1 -1 -0 -0 0 1 1 2 2 2 2 2 3 3 3
-4 -4 -4 -4 -4 -4 -4 -4 -4 -4 -4 -4 -5 -5 -4 -4 -4 -4 -4 -4 -4 -4 -4 -4 -3 -3 -2 -2 -2 -1 -1 -1 -0 0 0 1 1 1 2 2 2 2 2
-5 -5 -5 -5 -5 -5 -5 -5 -5 -5 -5 -5 -5 -5 -5 -5 -5 -5 -5 -5 -5 -5 -4 -4 -4 -4 -3 -3 -3 -2 -2 -2 -1 -1 -0 -0 0 1 1 1 1 1 2
-6 -6 -6 -6 -6 -6 -6 -6 -6 -6 -6 -6 -6 -6 -6 -6 -6 -6 -6 -5 -5 -5 -5 -5 -5 -4 -4 -4 -3 -3 -3 -3 -2 -2 -2 -1 -1 -1 -0 0 1 1 1
-7 -7 -6 -6 -6 -6 -6 -6 -6 -6 -7 -7 -6 -6 -6 -6 -6 -6 -6 -6 -6 -6 -5 -5 -5 -5 -5 -4 -4 -4 -4 -4 -3 -3 -3 -2 -2 -2 -1 -1 -0 -0 0
-7 -7 -7 -7 -7 -7 -7 -7 -7 -7 -7 -7 -7 -7 -7 -7 -7 -7 -7 -6 -6 -6 -6 -6 -6 -6 -5 -5 -5 -5 -5 -5 -4 -4 -4 -3 -3 -3 -2 -2 -1 -1 -1
-8 -8 -8 -8 -8 -8 -8 -7 -7 -8 -8 -8 -8 -7 -7 -7 -7 -7 -7 -7 -7 -7 -6 -6 -6 -6 -6 -6 -6 -6 -6 -5 -5 -5 -5 -4 -4 -4 -3 -2 -2 -2 -1
-8 -8 -8 -8 -8 -8 -8 -8 -8 -8 -8 -8 -8 -8 -8 -8 -8 -8 -8 -8 -7 -7 -7 -7 -7 -7 -6 -6 -6 -6 -6 -6 -6 -5 -5 -5 -5 -4 -4 -3 -2 -2 -2
-9 -9 -9 -9 -9 -8 -8 -9 -9 -9 -9 -9 -8 -8 -8 -8 -8 -8 -8 -8 -8 -8 -7 -7 -7 -7 -7 -7 -7 -7 -7 -7 -7 -6 -6 -6 -6 -5 -5 -4 -3 -3 -3
-9 -9 -9 -9 -9 -9 -9 -9 -9 -9 -9 -9 -9 -9 -9 -9 -9 -9 -9 -8 -8 -8 -8 -8 -8 -8 -7 -7 -7 -7 -7 -7 -7 -7 -7 -7 -7 -7 -6 -5 -4 -4 -4
Wind_Speed
4 4 4 4 4 4 4 4 3 3 3 3 3 3 3 3 3 3 3 5 6 4 3 3 3 3 3 3 4 4 4 3 3 3 3 3 3 3 3 3 3 4 4
4 4 4 4 5 4 4 3 3 2 2 2 2 2 2 2 2 3 3 3 5 6 4 3 2 2 2 2 2 3 3 3 3 3 3 2 2 3 3 3 3 3 3
4 4 3 4 4 4 4 3 3 2 2 2 2 2 2 2 2 2 3 3 3 5 5 4 3 2 2 2 2 2 2 2 2 2 2 1 2 2 3 3 3 3 3
5 3 3 4 4 4 4 3 2 2 2 2 1 1 1 1 2 2 2 2 3 3 4 6 5 4 4 3 3 2 2 1 2 2 1 1 1 1 2 3 3 4 3
4 4 3 3 3 3 3 3 2 2 2 2 2 1 1 1 1 2 2 3 3 3 3 5 6 6 6 6 5 3 2 1 0 1 0 1 0 0 1 2 2 3 4
3 3 3 3 3 3 3 3 3 2 2 2 2 1 1 0 1 1 1 2 2 3 3 3 3 4 6 7 7 5 3 2 1 1 1 1 1 1 1 2 2 3 4
2 3 3 3 3 2 2 3 2 2 3 2 1 1 1 0 1 1 1 1 2 3 3 3 3 3 3 4 6 7 6 4 3 2 2 3 3 3 3 3 4 4 4
2 2 3 2 2 2 2 2 2 1 2 2 1 1 1 2 1 0 1 1 1 2 3 4 4 4 4 3 5 7 7 7 5 4 4 4 5 5 5 5 4 4 4
0 1 1 2 2 2 1 1 1 1 1 2 2 1 1 2 1 2 1 1 1 2 2 3 4 4 4 3 4 6 7 7 7 6 5 5 6 6 6 6 6 5 4
1 0 1 1 1 1 1 1 1 1 1 1 1 2 2 2 2 2 2 1 2 2 2 3 3 3 3 3 4 7 7 7 7 7 7 6 7 7 7 7 8 7 6
1 1 1 1 1 1 1 1 1 1 1 1 1 1 1 2 2 3 3 2 3 2 3 3 3 3 3 3 4 6 7 7 8 8 8 7 7 7 7 8 8 7 7
2 2 2 2 2 2 2 2 2 2 2 2 2 1 2 2 2 3 4 4 4 3 3 3 2 3 3 4 5 6 7 7 8 8 9 8 8 8 7 7 7 6 5
2 3 3 3 2 3 3 3 2 3 3 3 3 2 2 3 2 3 4 4 5 4 3 3 2 2 3 4 5 7 7 7 8 9 9 9 8 8 8 8 7 6 7
3 4 4 4 4 4 4 3 3 3 3 4 4 4 3 3 3 3 3 4 4 4 5 4 3 2 3 4 6 7 7 7 8 9 10 9 9 8 8 9 9 8 7
3 4 4 4 4 4 4 4 3 4 4 4 4 4 4 4 4 4 4 4 4 5 5 4 3 2 5 6 7 7 8 8 9 10 10 9 9 9 9 9 9 9 8
4 4 4 4 4 4 5 4 4 4 4 4 4 5 5 4 4 4 4 4 5 6 5 4 5 5 6 7 8 9 9 10 9 10 10 10 9 9 9 9 9 10 9
4 5 5 5 5 5 5 5 5 5 5 5 5 5 6 6 5 5 5 5 5 6 7 7 6 6 7 7 7 8 9 9 9 9 10 10 10 10 10 10 10 10 10
5 5 5 5 5 6 5 5 6 5 6 6 6 6 6 5 7 6 5 6 6 6 7 8 7 7 8 8 8 8 8 9 9 9 10 10 11 10 10 11 11 10 10
5 5 5 5 5 6 6 6 6 6 6 7 7 7 7 7 7 7 7 7 6 6 7 7 7 7 7 6 7 7 8 7 8 9 10 10 10 10 11 11 11 11 11
5 5 6 6 6 6 6 6 6 7 7 7 8 8 8 8 9 8 7 8 8 7 7 7 7 7 7 7 6 6 7 6 6 7 8 9 10 11 11 12 12 12 12
5 5 6 6 6 6 6 7 7 7 8 8 8 9 9 10 11 10 8 8 8 8 8 7 7 7 7 6 6 6 7 7 7 5 6 6 7 7 8 10 11 12 12
5 5 6 6 7 6 9 10 9 8 8 9 9 9 9 10 11 13 13 13 12 11 10 9 8 8 9 8 7 7 7 7 7 4 6 7 7 7 7 8 10 12 13
5 6 6 6 7 9 11 11 11 9 8 8 9 9 8 8 10 9 11 12 13 15 15 12 11 11 10 9 8 9 9 9 9 7 7 8 7 8 8 10 13 13 13
6 6 7 7 8 9 11 11 11 9 8 9 9 10 10 10 9 10 9 10 10 11 12 11 11 11 10 10 10 10 10 10 10 8 8 9 8 8 8 9 12 13 14
6 6 7 7 8 9 11 12 11 8 8 9 9 10 10 10 12 13 11 10 11 10 12 14 14 14 14 14 12 8 8 8 9 8 6 7 7 8 8 8 9 11 12
6 6 7 7 8 9 11 12 12 7 8 8 8 9 12 12 13 14 11 10 11 10 8 8 9 11 11 11 13 11 9 9 8 7 5 6 6 6 6 6 6 7 8
Wind_Direction
36 38 38 35 28 22 18 12 8 11 21 24 23 27 36 33 29 22 29 36 31 34 41 58 64 57 61 63 59 58 66 78 104 111 121 137 142 143 138 141 132 122 109
38 36 35 30 23 14 10 4 1 358 11 19 16 13 24 29 25 24 27 43 40 36 38 47 48 39 48 52 45 44 59 71 89 102 114 128 155 171 169 162 158 156 147
42 41 36 29 19 12 11 10 2 1 15 16 5 356 14 27 29 26 28 34 41 40 35 39 40 34 23 29 33 23 36 78 71 96 106 126 152 184 193 182 190 191 193
41 40 37 28 19 20 18 16 8 358 3 351 340 344 5 32 31 29 35 37 39 34 39 38 36 37 27 17 21 22 25 68 68 76 92 91 99 156 185 190 203 210 212
40 41 35 31 25 26 23 17 10 6 352 347 331 327 343 11 42 39 41 37 31 27 29 38 39 36 30 22 12 4 3 13 89 64 57 153 101 229 219 216 212 220 221
39 40 34 31 31 27 24 19 13 10 4 347 325 321 317 6 56 47 36 32 20 17 18 18 22 25 23 18 14 2 337 329 306 248 266 237 221 246 259 254 243 238 229
44 44 32 26 27 24 20 21 23 22 21 10 333 307 267 139 74 52 36 26 20 13 9 11 8 3 4 13 15 10 356 321 305 279 261 259 250 252 265 264 258 263 250
44 47 35 18 18 16 29 28 26 15 4 357 323 283 268 219 205 298 344 357 359 11 8 5 4 5 358 358 10 10 357 342 313 300 278 271 259 249 260 264 268 268 271
9 36 28 16 6 13 13 9 9 2 328 338 350 328 272 256 283 234 257 295 328 341 347 347 346 350 351 351 353 5 360 347 330 305 297 285 274 262 258 260 264 268 277
286 316 348 356 343 340 330 328 347 321 291 295 333 345 319 317 269 265 240 264 305 310 317 332 329 334 339 340 354 358 356 348 337 326 308 297 288 279 268 264 267 270 271
298 310 277 287 297 289 287 301 320 313 277 259 280 307 296 289 268 259 264 277 293 290 303 308 314 322 323 327 336 344 344 340 333 326 319 315 307 297 285 274 267 268 271
282 291 263 252 266 273 266 271 284 275 271 264 263 266 272 269 271 264 264 275 282 290 295 286 292 308 321 322 324 334 332 327 325 319 315 313 309 305 298 290 275 269 272
269 279 272 266 270 270 263 262 263 258 257 256 257 262 268 273 273 278 272 274 279 287 279 263 270 292 312 317 318 329 321 320 319 315 311 310 309 307 304 299 285 276 270
261 272 269 265 262 262 258 251 253 253 256 254 257 260 259 265 261 265 272 277 277 272 261 262 264 275 304 311 319 316 311 313 309 307 306 304 304 302 300 296 286 279 278
269 265 266 263 263 259 254 249 248 250 255 254 254 255 259 265 266 263 262 263 265 269 267 267 268 280 318 314 311 306 300 301 302 300 297 297 295 295 293 289 283 274 273
266 261 262 261 263 258 250 247 251 250 251 255 255 253 257 262 266 264 259 259 261 263 265 271 278 289 299 303 304 298 296 296 288 290 290 288 289 288 286 284 283 271 268
261 256 256 259 262 257 249 246 245 248 249 255 256 254 259 262 261 261 257 254 258 259 263 273 278 284 288 291 297 295 293 290 285 281 285 282 281 282 282 279 277 274 267
258 257 255 255 260 256 249 242 244 245 246 252 257 259 260 261 259 259 255 255 256 259 264 272 277 281 283 287 289 293 293 289 285 282 279 280 276 275 279 278 274 271 267
259 260 254 249 255 255 247 244 244 245 247 250 253 256 258 258 258 259 257 258 259 260 263 267 273 277 279 280 285 286 286 285 286 282 278 276 273 269 272 276 273 270 267
255 256 255 252 255 255 247 245 244 246 249 251 253 254 256 255 256 258 259 258 257 259 261 262 267 270 272 274 274 280 285 286 285 286 283 280 280 275 271 272 271 268 265
256 258 258 256 256 255 244 242 245 248 251 254 255 255 256 258 259 258 257 258 258 256 258 259 262 268 269 272 272 279 280 288 286 278 281 279 282 278 276 270 267 264 262
259 258 256 256 258 257 252 251 251 251 253 254 257 258 259 260 261 263 262 261 258 255 254 257 262 261 266 271 273 272 276 280 282 281 286 284 281 276 275 273 272 267 262
259 257 258 257 261 260 257 257 255 256 252 253 256 258 260 259 262 262 265 268 267 262 258 257 258 260 264 264 266 266 264 268 274 281 287 283 280 276 275 270 275 271 263
258 259 260 261 263 262 261 262 263 261 256 255 255 256 258 261 258 260 262 264 264 264 262 260 258 260 261 262 259 260 266 272 276 269 268 274 279 279 281 274 268 268 265
261 261 262 261 262 265 263 263 265 262 257 257 257 256 256 258 258 261 262 262 264 264 264 263 264 263 262 263 262 260 259 261 271 270 263 266 277 286 283 275 266 263 263
263 265 264 262 263 265 266 265 265 260 259 260 260 257 255 257 260 260 260 258 259 262 266 267 267 265 262 259 258 252 253 255 268 272 261 261 273 285 285 272 272 275 270
Height
1541 1541 1541 1541 1541 1540 1540 1540 1540 1540 1540 1540 1540 1540 1540 1540 1540 1540 1540 1540 1541 1541 1541 1541 1542 1542 1542 1543 1543 1543 1544 1544 1544 1545 1546 1546 1547 1547 1548 1549 1549 1549 1549
1540 1539 1539 1539 1539 1539 1538 1538 1539 1539 1539 1538 1538 1538 1538 1538 1538 1538 1539 1539 1539 1539 1539 1539 1540 1540 1541 1541 1541 1542 1542 1542 1543 1544 1544 1545 1546 1546 1547 1548 1548 1549 1549
1538 1538 1537 1537 1537 1537 1537 1537 1537 1537 1537 1536 1536 1536 1536 1536 1536 1537 1537 1537 1537 1537 1537 1537 1538 1538 1538 1539 1539 1540 1540 1541 1541 1542 1543 1543 1544 1545 1546 1546 1547 1547 1548
1536 1536 1536 1535 1535 1535 1535 1534 1534 1534 1534 1534 1534 1534 1534 1534 1534 1535 1535 1535 1535 1535 1535 1535 1536 1536 1537 1537 1538 1538 1539 1539 1540 1540 1541 1541 1542 1543 1544 1544 1545 1546 1546
1534 1534 1534 1533 1533 1533 1532 1532 1532 1532 1532 1532 1532 1532 1532 1532 1532 1532 1532 1533 1533 1533 1533 1533 1533 1534 1534 1535 1535 1536 1537 1537 1538 1538 1539 1539 1540 1541 1542 1543 1543 1544 1545
1532 1532 1532 1531 1531 1531 1530 1530 1530 1530 1529 1529 1529 1529 1529 1529 1530 1530 1530 1530 1530 1531 1531 1531 1531 1531 1532 1532 1533 1533 1534 1535 1535 1536 1537 1537 1538 1539 1540 1540 1541 1542 1542
1529 1529 1529 1529 1529 1528 1528 1528 1528 1527 1527 1527 1527 1526 1526 1527 1527 1527 1527 1528 1528 1528 1528 1528 1528 1529 1529 1530 1530 1530 1531 1532 1533 1533 1534 1535 1535 1536 1537 1538 1539 1539 1540
1526 1526 1526 1526 1526 1526 1525 1525 1525 1525 1525 1525 1525 1524 1525 1526 1524 1524 1524 1524 1525 1525 1525 1525 1525 1526 1526 1526 1527 1527 1528 1529 1529 1530 1531 1532 1533 1533 1534 1535 1536 1537 1537
1523 1523 1523 1523 1523 1523 1523 1523 1523 1522 1522 1523 1523 1524 1524 1523 1522 1521 1521 1521 1521 1522 1522 1522 1522 1522 1523 1523 1523 1524 1524 1525 1526 1526 1527 1529 1529 1530 1531 1532 1533 1533 1534
1520 1520 1520 1520 1520 1520 1520 1520 1520 1520 1520 1520 1520 1520 1521 1520 1521 1519 1519 1518 1518 1518 1518 1519 1519 1519 1520 1520 1520 1520 1521 1522 1522 1523 1524 1524 1525 1526 1527 1528 1529 1530 1530
1516 1516 1516 1517 1517 1517 1517 1517 1516 1517 1517 1517 1517 1517 1517 1517 1517 1517 1516 1515 1515 1515 1515 1515 1515 1516 1516 1516 1516 1516 1517 1517 1518 1518 1519 1520 1521 1522 1523 1524 1524 1525 1526
1512 1512 1512 1513 1513 1513 1513 1513 1513 1513 1514 1514 1514 1514 1514 1515 1514 1514 1513 1512 1512 1511 1511 1511 1511 1512 1512 1512 1512 1512 1513 1513 1514 1514 1515 1515 1516 1517 1518 1519 1520 1521 1521
1507 1508 1508 1508 1509 1509 1509 1509 1509 1510 1510 1510 1510 1510 1511 1511 1511 1511 1511 1509 1508 1508 1508 1508 1508 1508 1508 1508 1508 1508 1508 1509 1509 1510 1510 1510 1511 1512 1513 1514 1515 1516 1517
1503 1504 1504 1504 1504 1505 1505 1505 1505 1506 1506 1506 1506 1507 1507 1507 1507 1507 1507 1507 1506 1505 1504 1504 1504 1504 1504 1504 1503 1503 1504 1504 1504 1505 1506 1506 1506 1507 1508 1509 1510 1510 1511
1499 1499 1500 1500 1500 1500 1501 1501 1501 1501 1502 1502 1502 1503 1503 1503 1503 1503 1503 1504 1504 1502 1501 1501 1501 1500 1500 1500 1500 1499 1499 1499 1499 1500 1500 1501 1501 1501 1502 1503 1504 1505 1506
1495 1495 1495 1495 1495 1496 1496 1496 1496 1497 1497 1497 1498 1498 1498 1499 1499 1499 1499 1499 1499 1499 1498 1496 1496 1496 1496 1495 1495 1495 1495 1494 1494 1495 1495 1495 1496 1496 1497 1498 1499 1499 1500
1490 1490 1490 1491 1491 1491 1491 1491 1492 1492 1492 1493 1493 1493 1494 1494 1494 1495 1495 1495 1495 1495 1493 1492 1492 1491 1491 1491 1491 1491 1490 1489 1489 1490 1490 1490 1490 1490 1491 1492 1493 1494 1495
1485 1485 1485 1486 1486 1486 1486 1486 1487 1487 1487 1488 1488 1488 1489 1489 1490 1490 1490 1490 1490 1490 1490 1488 1487 1487 1486 1486 1486 1486 1485 1485 1484 1484 1484 1484 1484 1484 1485 1486 1487 1487 1488
1480 1480 1480 1480 1481 1481 1481 1482 1482 1482 1483 1483 1483 1484 1484 1484 1484 1485 1485 1485 1485 1485 1485 1484 1482 1482 1482 1482 1481 1481 1480 1480 1479 1478 1478 1478 1479 1479 1479 1480 1480 1481 1482
1475 1475 1475 1476 1476 1476 1476 1477 1477 1477 1478 1478 1478 1478 1478 1479 1479 1480 1480 1480 1480 1480 1480 1479 1478 1477 1477 1477 1477 1476 1475 1475 1474 1474 1473 1473 1473 1473 1473 1473 1474 1475 1476
1470 1470 1471 1471 1471 1471 1472 1472 1472 1472 1473 1473 1473 1473 1473 1473 1473 1474 1474 1474 1475 1474 1474 1474 1473 1472 1472 1472 1472 1471 1471 1470 1469 1469 1468 1468 1467 1467 1467 1467 1468 1468 1469
1466 1466 1466 1466 1466 1467 1467 1467 1468 1468 1468 1467 1467 1467 1468 1468 1468 1468 1468 1468 1469 1469 1468 1468 1467 1467 1467 1468 1467 1467 1466 1465 1464 1464 1463 1462 1462 1461 1461 1461 1461 1462 1463
1462 1461 1461 1461 1461 1462 1462 1462 1463 1463 1462 1462 1462 1462 1462 1462 1462 1462 1461 1461 1462 1462 1463 1463 1461 1461 1462 1462 1462 1462 1461 1460 1459 1458 1458 1455 1456 1454 1454 1454 1454 1455 1456
1457 1457 1456 1456 1456 1456 1457 1457 1457 1457 1457 1456 1456 1456 1456 1456 1456 1456 1455 1455 1455 1455 1455 1455 1455 1455 1456 1456 1457 1456 1455 1454 1453 1453 1452 1450 1449 1449 1448 1447 1448 1448 1449
1453 1452 1452 1452 1451 1451 1452 1452 1452 1451 1451 1450 1451 1450 1450 1450 1450 1450 1450 1449 1449 1448 1449 1449 1449 1449 1449 1450 1450 1450 1449 1449 1447 1446 1446 1445 1443 1442 1441 1441 1441 1441 1441
1448 1448 1447 1447 1446 1446 1446 1446 1446 1446 1445 1445 1445 1444 1444 1444 1444 1444 1444 1443 1442 1442 1442 1442 1442 1442 1442 1442 1443 1443 1443 1443 1441 1440 1440 1440 1438 1438 1435 1434 1434 1434 1434